FW8411DW Weather Reports


time (UTC)temp
C
wind
direction
speed
KPH
gust
KPH
rain 1hr
cm
rain 24hr
cm
rain mn
cm
humidity
%
barometer
mb
20260906154503 20 79 4.8 11.3 0.00 0.00 0.00 93 1004.9
20260906153603 20 74 3.2 8.0 0.00 0.00 0.00 93 1004.9
20260906152703 20 70 4.8 8.0 0.00 0.00 0.00 94 1004.7
20260906151803 20 69 3.2 8.0 0.00 0.00 0.00 94 1004.7
20260906150903 20 69 1.6 8.0 0.00 0.00 0.00 94 1004.7
20260906150003 20 69 1.6 3.2 0.00 0.00 0.00 94 1004.8
20260906145403 20 69 1.6 6.4 0.00 0.00 0.00 94 1004.7
20260906144503 20 69 1.6 6.4 0.00 0.00 0.00 94 1004.5
20260906143603 19 69 3.2 6.4 0.00 0.00 0.00 94 1004.5
20260906142703 19 67 3.2 8.0 0.00 0.00 0.00 94 1004.5
20260906142017 19 66 3.2 8.0 0.00 0.00 0.00 94 1004.6
20260906140903 19 66 4.8 8.0 0.00 0.00 0.00 95 1004.6
20260906140003 18 65 3.2 8.0 0.00 0.00 0.00 95 1004.5
20260906135619 18 65 3.2 8.0 0.00 0.00 0.00 95 1004.6
20260906134718 18 65 1.6 6.4 0.00 0.00 0.00 95 1004.6
20260906133603 18 65 1.6 3.2 0.00 0.00 0.00 95 1004.6
20260906132703 17 65 1.6 3.2 0.00 0.00 0.00 94 1004.6
20260906132016 17 65 1.6 3.2 0.00 0.00 0.00 95 1004.6
20260906131119 17 65 0.0 3.2 0.00 0.00 0.00 94 1004.4
20260906130219 17 65 0.0 1.6 0.00 0.00 0.00 94 1004.3
20260906125403 17 65 1.6 3.2 0.00 0.00 0.00 94 1004.2
20260906124503 17 65 1.6 3.2 0.00 0.00 0.00 94 1004.1
20260906123817 16 65 1.6 3.2 0.00 0.00 0.00 93 1004.0
20260906122703 16 65 1.6 3.2 0.00 0.00 0.00 93 1004.1
20260906121803 16 65 0.0 1.6 0.00 0.00 0.00 93 1004.1
20260906120904 16 65 0.0 3.2 0.00 0.00 0.00 93 1004.1
20260906120003 16 65 1.6 3.2 0.00 0.00 0.00 93 1003.9
20260906115403 16 65 1.6 3.2 0.00 0.00 0.00 93 1003.8
20260906114503 16 65 0.0 1.6 0.00 0.00 0.00 93 1003.8
20260906113603 16 65 1.6 1.6 0.00 0.00 0.00 93 1003.5
20260906112703 16 65 1.6 1.6 0.00 0.00 0.00 93 1003.3
20260906111803 16 65 1.6 1.6 0.00 0.00 0.00 93 1003.3
20260906111119 16 65 1.6 3.2 0.00 0.00 0.00 93 1003.2
20260906110218 16 65 1.6 3.2 0.00 0.00 0.00 93 1003.2
20260906105403 16 65 1.6 3.2 0.00 0.00 0.00 93 1003.2
20260906104503 16 65 0.0 1.6 0.00 0.00 0.00 93 1003.1
20260906103603 16 65 0.0 1.6 0.00 0.00 0.00 93 1003.2
20260906102703 17 65 0.0 1.6 0.00 0.00 0.00 93 1003.2
20260906101803 17 65 0.0 1.6 0.00 0.00 0.00 93 1003.2
20260906100903 17 0 0.0 0.0 0.00 0.00 0.00 93 1003.2
20260906100003 17 0 0.0 0.0 0.00 0.00 0.00 93 1003.0
20260906095403 17 65 0.0 1.6 0.00 0.00 0.00 93 1002.9
20260906094504 17 65 0.0 1.6 0.00 0.00 0.00 93 1002.9
20260906093603 17 65 0.0 1.6 0.00 0.00 0.00 93 1003.0
20260906092703 17 65 1.6 1.6 0.00 0.00 0.00 93 1003.0
20260906091803 17 65 1.6 1.6 0.00 0.00 0.00 93 1002.9
20260906090903 17 65 0.0 1.6 0.00 0.00 0.00 93 1003.1
20260906090003 17 65 0.0 1.6 0.00 0.00 0.00 93 1003.0
20260906085403 17 65 0.0 1.6 0.00 0.00 0.00 93 1003.0
20260906084716 17 65 0.0 1.6 0.00 0.00 0.00 93 1003.0
20260906083603 17 65 0.0 1.6 0.00 0.00 0.00 93 1003.0
20260906082919 17 65 0.0 1.6 0.00 0.00 0.00 93 1003.0
20260906081803 17 65 1.6 1.6 0.00 0.00 0.00 92 1003.1
20260906080903 17 65 0.0 1.6 0.00 0.00 0.00 93 1003.0
20260906080003 17 0 0.0 0.0 0.00 0.00 0.00 93 1003.0
20260906075403 17 65 0.0 1.6 0.00 0.00 0.00 93 1003.0
20260906074716 17 65 1.6 1.6 0.00 0.00 0.00 92 1003.1
20260906073819 17 65 1.6 1.6 0.00 0.00 0.00 92 1003.1
20260906072703 17 65 0.0 1.6 0.00 0.00 0.00 92 1003.1
20260906071803 17 0 0.0 0.0 0.00 0.00 0.00 92 1003.0
20260906070903 17 0 0.0 0.0 0.00 0.00 0.00 92 1002.9
20260906070003 18 0 0.0 0.0 0.00 0.00 0.00 92 1003.0
20260906065403 17 0 0.0 0.0 0.00 0.00 0.00 92 1002.8
20260906064503 17 65 0.0 1.6 0.00 0.00 0.00 91 1002.9
20260906063603 17 0 0.0 0.0 0.00 0.00 0.00 90 1002.9
20260906062703 17 0 0.0 0.0 0.00 0.00 0.00 90 1002.9
20260906061803 17 0 0.0 0.0 0.00 0.00 0.00 90 1003.0
20260906060903 17 0 0.0 0.0 0.00 0.00 0.00 90 1002.9
20260906060003 17 0 0.0 0.0 0.00 0.00 0.00 90 1002.9
20260906055403 17 0 0.0 0.0 0.00 0.00 0.00 90 1002.9
20260906054503 18 0 0.0 0.0 0.00 0.00 0.00 90 1002.9
20260906053603 18 0 0.0 0.0 0.00 0.00 0.00 90 1002.9
20260906052703 18 0 0.0 0.0 0.00 0.00 0.00 90 1002.8
20260906052017 18 0 0.0 0.0 0.00 0.00 0.00 90 1002.8
20260906050903 18 0 0.0 0.0 0.00 0.00 0.00 90 1002.8
20260906050003 18 0 0.0 0.0 0.00 0.00 0.00 90 1002.6
20260906045403 18 0 0.0 0.0 0.00 0.00 0.00 90 1002.7
20260906044503 18 0 0.0 0.0 0.00 0.00 0.00 90 1002.6
20260906043603 19 0 0.0 0.0 0.00 0.00 0.00 90 1002.4
20260906042703 19 0 0.0 0.0 0.00 0.00 0.00 90 1002.2
20260906042017 19 65 0.0 3.2 0.00 0.00 0.00 90 1002.1
20260906040903 20 65 3.2 6.4 0.00 0.00 0.00 90 1002.0
20260906040003 20 65 0.0 3.2 0.00 0.00 0.00 91 1002.1
20260906035403 20 65 0.0 3.2 0.00 0.00 0.00 91 1002.0
20260906034718 20 65 0.0 1.6 0.00 0.00 0.00 90 1001.9
20260906033603 20 0 0.0 0.0 0.00 0.00 0.00 90 1002.0
20260906032917 20 0 0.0 0.0 0.00 0.00 0.00 90 1002.0
20260906031803 20 65 0.0 6.4 0.00 0.00 0.00 90 1001.9
20260906030903 20 65 3.2 6.4 0.00 0.00 0.00 90 1001.6
20260906030003 21 65 3.2 6.4 0.00 0.00 0.00 89 1001.6
20260906025619 21 65 3.2 6.4 0.00 0.00 0.00 89 1001.6
20260906024503 21 65 3.2 6.4 0.00 0.00 0.00 89 1001.6
20260906023603 21 65 0.0 3.2 0.00 0.00 0.00 89 1001.7
20260906022703 21 65 1.6 3.2 0.00 0.00 0.00 89 1001.6
20260906021803 21 65 1.6 3.2 0.00 0.00 0.00 88 1001.6
20260906020903 21 65 1.6 3.2 0.00 0.00 0.00 88 1001.5
20260906020219 21 65 1.6 3.2 0.00 0.00 0.00 88 1001.5
20260906015403 21 65 1.6 3.2 0.00 0.00 0.00 88 1001.2
20260906014718 21 65 1.6 6.4 0.00 0.00 0.00 87 1001.3
20260906013603 22 65 3.2 3.2 0.00 0.00 0.00 87 1001.1
20260906012703 22 65 1.6 3.2 0.00 0.00 0.00 87 1001.1
20260906011803 22 65 0.0 3.2 0.00 0.00 0.00 86 1001.1
20260906011119 22 65 0.0 1.6 0.00 0.00 0.00 86 1001.1
20260906010003 22 65 0.0 1.6 0.00 0.00 0.00 86 1001.0
20260906005403 22 0 0.0 0.0 0.00 0.00 0.00 86 1001.1
20260906004503 22 0 0.0 0.0 0.00 0.00 0.00 85 1001.0
20260906003603 23 0 0.0 0.0 0.00 0.00 0.00 84 1001.0
20260906002703 23 0 0.0 0.0 0.00 0.00 0.00 84 1001.0
20260906001803 23 65 0.0 1.6 0.00 0.00 0.00 83 1001.0
20260906000903 23 65 0.0 1.6 0.00 0.00 0.00 83 1001.0
20260906000003 23 65 1.6 3.2 0.00 0.00 0.00 82 1001.2
20260905235618 23 65 1.6 3.2 0.00 0.00 0.00 82 1001.2
20260905234503 23 65 1.6 3.2 0.00 0.00 0.00 82 1001.4
20260905233816 23 65 1.6 6.4 0.00 0.00 0.00 82 1001.3
20260905232703 23 65 1.6 3.2 0.00 0.00 0.00 82 1001.5
20260905231803 23 65 0.0 3.2 0.00 0.00 0.00 82 1001.5
20260905230903 23 65 0.0 1.6 0.00 0.00 0.00 82 1001.5
20260905230003 24 65 1.6 6.4 0.00 0.00 0.00 82 1001.3
20260905225617 24 65 1.6 6.4 0.00 0.00 0.00 82 1001.3
20260905224716 24 65 1.6 4.8 0.00 0.00 0.00 81 1001.2
20260905223603 24 65 1.6 6.4 0.00 0.00 0.00 81 1001.2
20260905222703 24 65 1.6 4.8 0.00 0.00 0.00 81 1001.1
20260905221803 24 65 1.6 4.8 0.00 0.00 0.00 81 1001.0
20260905220903 24 65 3.2 8.0 0.00 0.00 0.00 81 1001.0
20260905220003 24 65 3.2 8.0 0.00 0.00 0.00 80 1000.9
20260905212703 25 66 4.8 9.7 0.00 0.00 0.00 79 1000.8
20260905211803 25 66 3.2 8.0 0.00 0.00 0.00 81 1000.6
20260905210903 25 68 4.8 9.7 0.00 0.00 0.00 82 1000.7
20260905210003 24 69 3.2 9.7 0.00 0.00 0.00 81 1000.9
20260905205403 24 72 4.8 9.7 0.00 0.00 0.00 81 1000.9
20260905204503 24 73 3.2 8.0 0.00 0.00 0.00 82 1001.0
20260905203603 24 74 4.8 9.7 0.00 0.00 0.00 82 1001.1
20260905202703 24 78 3.2 8.0 0.00 0.00 0.00 82 1001.1
20260905201803 24 78 3.2 8.0 0.00 0.00 0.00 81 1001.2
20260905200903 24 78 1.6 8.0 0.00 0.00 0.00 82 1001.1
20260905200003 24 78 3.2 9.7 0.00 0.00 0.00 82 1001.2
20260905195403 24 78 3.2 9.7 0.00 0.00 0.00 82 1001.2
20260905194503 24 79 3.2 8.0 0.00 0.00 0.00 82 1001.1
20260905193603 24 79 3.2 8.0 0.00 0.00 0.00 82 1001.1
20260905192919 24 79 1.6 6.4 0.00 0.00 0.00 82 1001.1
20260905191803 25 79 3.2 9.7 0.00 0.00 0.00 82 1001.1
20260905190903 24 80 1.6 8.0 0.00 0.00 0.00 83 1001.1
20260905190003 24 81 3.2 8.0 0.00 0.00 0.00 83 1001.0
20260905185403 24 81 3.2 8.0 0.00 0.00 0.00 83 1001.1
20260905184503 24 81 1.6 6.4 0.00 0.00 0.00 83 1001.1
20260905183603 24 81 3.2 6.4 0.00 0.00 0.00 83 1001.2
20260905182919 24 81 3.2 8.0 0.00 0.00 0.00 83 1001.2
20260905182018 24 81 3.2 8.0 0.00 0.00 0.00 84 1001.2
20260905180903 24 81 3.2 8.0 0.00 0.00 0.00 84 1001.3
20260905180003 24 81 1.6 6.4 0.00 0.00 0.00 85 1001.3
20260905175616 24 81 1.6 6.4 0.00 0.00 0.00 85 1001.4
20260905174715 24 81 1.6 6.4 0.00 0.00 0.00 85 1001.5
20260905173603 23 81 1.6 6.4 0.00 0.00 0.00 85 1001.5
20260905172703 23 81 1.6 6.4 0.00 0.00 0.00 86 1001.5
20260905171803 23 81 1.6 3.2 0.00 0.00 0.00 87 1001.5
20260905171117 23 81 1.6 6.4 0.00 0.00 0.00 87 1001.4
20260905170003 23 81 1.6 6.4 0.00 0.00 0.00 87 1001.2
20260905165616 23 81 1.6 8.0 0.00 0.00 0.00 88 1001.2
20260905164503 23 81 3.2 6.4 0.00 0.00 0.00 88 1001.3
20260905163603 23 81 3.2 6.4 0.00 0.00 0.00 88 1001.2
20260905162703 22 81 3.2 6.4 0.00 0.00 0.00 89 1001.3
20260905161803 22 81 1.6 8.0 0.00 0.00 0.00 90 1001.3
20260905160903 22 81 1.6 6.4 0.00 0.00 0.00 90 1001.2
20260905160216 22 81 1.6 8.0 0.00 0.00 0.00 90 1001.3
20260905155403 22 81 1.6 6.4 0.00 0.00 0.00 90 1001.2
20260905154719 22 81 3.2 8.0 0.00 0.00 0.00 91 1001.2